Location: Unspecified
(0.0000°N, 0.0000°E)
Time: 20:04:09
(UTC+02:00)

Iridium 15 - Visible Passes

Search period start: 31 May 2016 00:00
Search period end: 10 June 2016 00:00
Orbit: 776 x 779 km, 86.4° (Epoch: 31 May)

Date Brightness Start Highest point End Pass type
(mag) Time Alt. Az. Time Alt. Az. Time Alt. Az.
31 May 5.9 21:15:48 10° S 21:21:02 79° E 21:26:14 10° N visible
01 Jun 6.6 20:42:51 10° SSE 20:47:34 34° E 20:52:15 10° NNE visible
01 Jun 8.9 22:25:46 10° WSW 22:27:59 13° W 22:30:12 10° WNW visible
02 Jun 7.9 21:50:05 10° SSW 21:54:32 29° W 21:58:58 10° NNW visible
03 Jun 6.4 21:15:55 10° S 21:21:05 64° W 21:26:14 10° N visible
04 Jun 6.1 20:42:31 10° SSE 20:47:38 57° E 20:52:42 10° NNE visible
05 Jun 8.6 21:51:10 10° SW 21:54:35 18° W 21:58:01 10° NW visible
06 Jun 7.4 21:16:18 10° SSW 21:21:08 39° W 21:25:57 10° NNW visible
07 Jun 6.1 20:42:27 10° S 20:47:41 88° W 20:52:53 10° N visible
08 Jun 9.2 21:53:47 10° W 21:54:38 10° W 21:55:30 10° W visible
09 Jun 8.3 21:17:02 10° SW 21:21:11 24° W 21:25:20 10° NW visible
